Regional Weather Roundup
Issued by NWS Little Rock, AR

Home | Current Version | Previous Version | Graphics & Text | Print | Product List | Glossary On
Versions: 1 2 3 4 5 6 7 8 9 10 11 12 13 14 15 16 17 18 19 20 21 22 23 24 25 26 27 28 29 30 31 32 33 34 35 36 37 38 39 40 41 42 43 44 45 46 47 48 49 50
000
ASUS44 KLZK 041205
RWRLZK

WEATHER ROUNDUP FOR ARKANSAS
NATIONAL WEATHER SERVICE LITTLE ROCK AR
700 AM CDT FRI SEP 04 2015

NOTE: "FAIR" INDICATES FEW OR NO CLOUDS BELOW 12,000 FEET WITH NO
SIGNIFICANT WEATHER AND/OR OBSTRUCTIONS TO VISIBILITY.

ARZ001-003-010-029-041300-
NORTHWEST ARKANSAS

CITY           SKY/WX    TMP DP  RH WIND       PRES   REMARKS
FAYETTEVILLE   PTCLDY    63  63 100 CALM      30.02R FOG
6HR MIN TEMP:  63; 6HR MAX TEMP:  67;

FORT SMITH     PTCLDY    72  68  87 NE5       29.97R
6HR MIN TEMP:  72; 6HR MAX TEMP:  75;

HARRISON       PTCLDY    67  66  97 E5        30.03R
6HR MIN TEMP:  67; 6HR MAX TEMP:  70;

BENTONVILLE    MOCLDY    70  64  83 SE5       30.02R
6HR MIN TEMP:  70; 6HR MAX TEMP:  72;

ROGERS         MOCLDY    71  67  87 SE7       30.03R
6HR MIN TEMP:  71; 6HR MAX TEMP:  74;

SILOAM SPGS    PTCLDY    70  61  73 E5        29.99S
6HR MIN TEMP:  70; 6HR MAX TEMP:  73;

HIGHFILL       MOCLDY    71  67  87 CALM      30.01R
6HR MIN TEMP:  68; 6HR MAX TEMP:  73;

SPRINGDALE     PTCLDY    70  66  88 SE5       30.04R
$$

ARZ004-005-016-041300-
NORTH CENTRAL ARKANSAS

CITY           SKY/WX    TMP DP  RH WIND       PRES   REMARKS
BATESVILLE     CLEAR     68  66  94 W3        30.00R
6HR MIN TEMP:  68; 6HR MAX TEMP:  72;

FLIPPIN        PTCLDY    66  63  88 CALM      29.99S
6HR MIN TEMP:  66; 6HR MAX TEMP:  72;

MTN HOME       CLEAR     69  68  96 CALM      30.01R FOG
6HR MIN TEMP:  68; 6HR MAX TEMP:  74;

$$

ARZ040-041-041300-
WEST CENTRAL ARKANSAS

CITY           SKY/WX    TMP DP  RH WIND       PRES   REMARKS
MENA           CLEAR     68  64  88 CALM      30.01R
MOUNT IDA      PTCLDY    68  66  93 CALM      29.98R FOG
6HR MIN TEMP:  68; 6HR MAX TEMP:  71;

$$

ARZ009-017-025-026-028-041300-
NORTHEAST ARKANSAS

CITY           SKY/WX    TMP DP  RH WIND       PRES   REMARKS
JONESBORO      CLEAR     69  68  96 CALM      30.00R
6HR MIN TEMP:  67; 6HR MAX TEMP:  70;

NEWPORT        CLEAR     70  69  96 NE5       30.01R FOG
6HR MIN TEMP:  69; 6HR MAX TEMP:  75;

WALNUT RIDGE   CLEAR     70  64  83 CALM      30.00R
6HR MIN TEMP:  70; 6HR MAX TEMP:  75;

BLYTHEVILLE    CLEAR     70  70 100 NE3       30.00R
6HR MIN TEMP:  69; 6HR MAX TEMP:  76;

$$

ARZ022-023-033-042-044-041300-
CENTRAL ARKANSAS

CITY           SKY/WX    TMP DP  RH WIND       PRES   REMARKS
LITTLE ROCK    PTCLDY    74  69  85 CALM      29.99R
6HR MIN TEMP:  73; 6HR MAX TEMP:  77;

N LITTLE ROCK    N/A     74  70  87 CALM      29.99R
6HR MIN TEMP:  74; 6HR MAX TEMP:  80;

JACKSONVILLE   CLEAR     69  67  93 CALM      29.99R
6HR MIN TEMP:  69; 6HR MAX TEMP:  71;

SEARCY         CLEAR     68  68 100 MISG      30.01R FOG
6HR MIN TEMP:  68; 6HR MAX TEMP:  73;

HOT SPRINGS    PTCLDY    74  67  78 E5        29.99R
6HR MIN TEMP:  72; 6HR MAX TEMP:  76;

RUSSELLVILLE   PTCLDY    70  68  93 CALM      29.98R FOG
6HR MIN TEMP:  70; 6HR MAX TEMP:  74;

$$

ARZ036-041300-
EAST ARKANSAS

CITY           SKY/WX    TMP DP  RH WIND       PRES   REMARKS
WEST MEMPHIS   CLEAR     70  70 100 CALM      29.98R FOG
6HR MIN TEMP:  69; 6HR MAX TEMP:  73;

$$

ARZ050-053-066-070-073-041300-
SOUTHWEST ARKANSAS

CITY           SKY/WX    TMP DP  RH WIND       PRES   REMARKS
ARKADELPHIA    FAIR      69  69 100 CALM      29.98R
6HR MIN TEMP:  69; 6HR MAX TEMP:  72;

CAMDEN         PTCLDY    68  66  94 CALM      29.97R FOG
TEXARKANA      MOCLDY    72  69  90 CALM      29.97R
6HR MIN TEMP:  71; 6HR MAX TEMP:  78;

EL DORADO      FAIR      69  67  93 CALM      29.97R
6HR MIN TEMP:  69; 6HR MAX TEMP:  74;

DE QUEEN       PTCLDY    68  67  96 CALM      29.96R FOG
6HR MIN TEMP:  67; 6HR MAX TEMP:  71;

$$

ARZ056-057-069-041300-
SOUTHEAST ARKANSAS

CITY           SKY/WX    TMP DP  RH WIND       PRES   REMARKS
PINE BLUFF     CLEAR     70  68  93 CALM      29.98R
6HR MIN TEMP:  69; 6HR MAX TEMP:  74;

STUTTGART      CLEAR     73  66  78 CALM      30.00R
6HR MIN TEMP:  72; 6HR MAX TEMP:  79;

MONTICELLO     CLEAR     72  70  93 CALM      29.98R
6HR MIN TEMP:  71; 6HR MAX TEMP:  77;


$$





USA.gov is the U.S. government's official web portal to all federal, state and local government web resources and services.